Regional Weather Roundup
Issued by NWS Cleveland, OH

Home | Current Version | Previous Version | Graphics & Text | Print | Product List | Glossary On
Versions: 1 2 3 4 5 6 7 8 9 10 11 12 13 14 15 16 17 18 19 20 21 22 23 24 25 26 27 28 29 30 31 32 33 34 35 36 37 38 39 40 41 42 43 44 45 46 47 48 49 50
000
ASUS41 KCLE 280410
RWRCLE
OHIO REGIONAL WEATHER ROUNDUP
NATIONAL WEATHER SERVICE CLEVELAND, OH
1200 AM EDT WED JUN 28 2017

NOTE: "FAIR" INDICATES FEW OR NO CLOUDS BELOW 12,000 FEET WITH NO
SIGNIFICANT WEATHER AND/OR OBSTRUCTIONS TO VISIBILITY.

OHZ001>008-015>018-024>027-034-035-043-044-280500-
   NORTHWEST OHIO

CITY           SKY/WX    TMP DP  RH WIND       PRES   REMARKS
DEFIANCE       CLEAR     54  49  83 CALM      30.09S
FINDLAY        CLEAR     57  49  74 S7        30.09R
TOLEDO EXPRESS CLEAR     54  51  90 CALM      30.08R
TOLEDO EXEC    CLEAR     62  52  69 SW6       30.09R
LIMA           CLEAR     58  50  75 S6        30.11R
$$

OHZ009>014-019>023-028>033-038-089-280500-
   NORTHEAST OHIO

CITY           SKY/WX    TMP DP  RH WIND       PRES   REMARKS
CLE-HOPKINS    PTCLDY    63  45  51 S9        30.11R
CLE-LAKEFRONT  PTCLDY    64  44  48 S9        30.08R
CUY CO. ARPT   NOT AVBL
LORAIN-ELYRIA  PTCLDY    58  44  60 SW7       30.10R
ASHTABULA      CLOUDY    57  50  77 S3        30.10S
AKRON-CANTON   CLEAR     58  44  60 SW5       30.12R
WOOSTER        CLEAR     56  47  71 CALM      30.12S
MANSFIELD      PTCLDY    56  48  74 S6        30.12S
YOUNGSTOWN     PTCLDY    50  45  83 S5        30.11R
$$

OHZ042-051>053-060>062-070>072-077>081-280500-
  SOUTHWEST OHIO

CITY           SKY/WX    TMP DP  RH WIND       PRES   REMARKS
CINC-COVINGTON CLEAR     62  50  64 CALM      30.13R
CINC-LUNKEN    CLEAR     56  53  90 CALM      30.14R
HAMILTON       CLEAR     54  52  93 CALM      30.14R
DAYTON         CLEAR     60  46  59 SW3       30.13S
WRIGHT-PAT AFB CLEAR     59  51  76 CALM      30.12S
DAYTON GENERAL CLEAR     58  50  75 CALM      30.12S
WILMINGTON     CLEAR     56  51  84 CALM      30.13S
$$

OHZ036-037-039>041-045>050-054>059-063>069-073>076-082>088-280500-
  CENTRAL AND SOUTHEAST OHIO

CITY           SKY/WX    TMP DP  RH WIND       PRES   REMARKS
COLUMBUS       CLEAR     59  49  69 CALM      30.12R
OSU AIRPORT    CLEAR     58  47  66 CALM      30.12R
BOLTON FIELD   CLEAR     55  50  85 CALM      30.13S
RICKENBACK AFB CLEAR     56  50  79 CALM      30.13R
NEWARK         CLEAR     53  49  86 CALM      30.13R
MARION         CLEAR     59  45  59 SW6       30.12R
LANCASTER      CLEAR     52  49  89 CALM      30.14R
ZANESVILLE     CLEAR     56  52  86 CALM      30.13R
NEW PHILLY     NOT AVBL
$$




USA.gov is the U.S. government's official web portal to all federal, state and local government web resources and services.